Wind_Speed
23 25 27 29 30 30 30 29 29 27 27 28 24 19 11 9 14 12 14 16 14 10 9 6 16 22 10 8 6 5 3 11 8 7 8 6 9 5 6 6 5 4 2 2 4 6 7
22 24 26 28 29 30 30 30 29 28 27 26 25 18 13 10 9 7 14 16 15 9 8 8 23 14 13 5 6 5 9 10 8 7 5 5 3 1 6 5 3 2 2 4 4 7 7
22 23 26 27 28 30 31 32 30 29 28 23 24 20 18 15 12 14 14 18 16 16 18 17 18 17 7 8 6 10 8 9 9 7 6 4 6 1 8 6 4 2 4 4 6 3 3
22 23 24 25 27 29 30 32 31 29 27 22 23 20 19 14 9 16 15 19 18 21 20 20 19 22 5 5 17 11 13 15 13 13 13 8 8 7 2 8 4 3 2 4 8 4 1
22 22 23 25 27 28 28 30 31 30 26 25 22 21 21 23 14 19 18 19 21 21 19 14 12 12 5 9 6 5 3 12 14 12 11 7 4 4 3 4 4 5 4 6 3 4 2
20 21 22 23 25 27 27 27 28 30 27 24 24 20 19 24 23 22 25 27 26 14 17 17 11 11 3 3 4 10 9 7 7 9 6 2 2 2 4 4 2 5 4 5 6 5 8
20 20 21 22 24 25 25 25 26 28 28 22 21 17 17 18 17 13 10 7 4 8 25 13 14 18 10 9 8 9 5 8 4 3 2 2 2 3 7 4 3 3 3 7 7 3 8
20 19 19 20 22 24 25 25 25 25 25 22 16 16 12 6 6 9 7 7 5 6 12 22 17 16 12 2 6 6 2 1 2 4 4 3 3 5 4 3 3 2 4 6 6 0 9
19 19 19 20 21 22 23 25 24 23 22 21 14 11 11 14 19 25 23 12 7 5 6 8 7 6 4 5 5 8 5 1 4 5 3 2 8 6 1 2 2 3 5 5 6 13 14
18 18 19 20 20 21 23 23 22 22 21 19 16 6 5 7 5 4 6 4 1 3 4 8 6 4 3 3 4 7 6 3 2 4 4 5 5 1 1 2 3 4 3 4 8 10 4
19 17 17 19 20 21 22 22 21 20 20 19 14 10 1 5 4 5 3 2 3 4 5 8 5 1 3 4 2 4 5 1 4 4 3 4 4 3 3 1 3 3 5 9 10 9 8
20 18 16 18 19 20 21 21 21 20 20 17 10 8 4 2 1 1 1 5 3 1 7 3 3 2 2 4 3 1 2 2 1 1 1 3 1 2 3 3 5 8 8 8 1 1 4
23 19 18 17 19 18 19 20 22 22 22 18 9 7 6 4 2 4 2 2 2 6 1 3 4 3 5 4 3 3 2 3 2 1 1 4 4 3 4 5 3 3 5 2 2 2 3
20 21 20 18 18 18 19 20 20 23 25 15 6 5 4 3 3 4 4 1 10 2 4 2 2 4 3 2 3 2 1 3 2 3 0 1 3 6 7 3 3 1 3 2 4 3 6
18 21 20 19 19 18 19 20 21 23 24 14 4 3 5 5 1 4 3 7 3 3 4 5 4 2 3 2 2 2 3 2 2 2 3 3 2 3 5 1 3 2 1 5 3 7 4
17 18 19 20 21 19 18 19 20 22 23 13 2 1 5 6 2 5 5 7 4 3 2 3 1 3 2 2 3 2 0 2 1 1 3 3 2 2 3 1 2 2 4 2 3 3 4
18 17 19 20 22 21 18 17 18 20 23 10 4 1 7 5 2 4 5 5 4 2 2 3 3 2 3 1 2 1 2 3 2 1 1 4 3 2 1 6 5 3 2 3 4 4 3
20 17 16 20 21 22 20 16 16 19 22 9 4 1 10 4 3 2 3 3 2 3 4 3 2 3 2 1 1 1 1 1 1 0 2 1 2 4 6 2 2 7 7 7 3 1 4
18 18 16 17 20 22 18 17 14 15 20 5 3 3 6 4 3 4 2 3 1 2 1 1 1 0 0 1 1 1 1 1 3 2 3 2 1 4 3 2 3 6 9 11 8 4 10
17 19 17 16 18 20 19 16 13 12 14 4 2 2 3 3 3 7 5 1 3 3 1 1 1 2 2 2 2 2 2 1 1 4 4 2 4 8 7 7 3 7 8 11 10 4 7
16 18 18 17 16 18 18 16 12 10 10 4 3 2 2 1 1 1 2 4 3 3 3 3 2 4 3 2 3 4 2 3 4 5 3 3 6 5 14 18 17 17 17 14 14 17 9
16 16 18 18 16 16 18 18 10 7 5 3 0 1 2 1 1 3 2 6 7 4 3 3 4 3 3 4 4 3 3 4 4 7 6 4 4 8 13 8 7 12 17 19 19 19 20
18 16 16 18 17 17 18 19 7 4 2 2 2 2 2 3 2 3 1 3 6 2 6 3 2 4 7 6 4 8 9 11 8 5 7 5 4 4 5 4 13 15 14 21 15 12 17
20 18 16 17 17 17 18 14 2 3 2 1 3 3 2 1 5 5 2 3 5 6 3 1 4 4 3 5 9 8 9 12 13 13 11 6 6 4 6 9 5 1 1 3 15 12 15
20 18 16 17 16 15 14 6 2 1 2 1 3 2 2 2 4 6 9 6 5 6 6 8 7 3 3 6 4 6 5 4 5 9 12 11 7 4 4 6 14 10 3 3 5 7 12
19 18 17 16 16 14 11 6 2 0 0 2 2 3 2 3 4 3 3 7 7 7 5 5 2 3 3 3 3 3 3 2 2 4 1 7 10 6 2 4 4 3 1 1 1 4 7
19 17 17 16 15 14 12 9 8 5 2 3 4 3 3 3 3 6 5 3 3 4 5 1 4 5 4 4 4 4 4 1 3 3 5 5 6 13 10 6 9 3 5 3 3 2 4
20 18 17 17 16 17 15 12 12 10 6 3 5 6 2 2 3 7 5 5 4 4 5 3 2 3 4 5 3 4 4 3 3 5 4 8 5 5 6 7 9 8 5 5 2 4 2
21 20 19 18 16 17 17 16 13 14 12 7 4 7 6 4 4 5 12 14 10 7 3 4 5 2 3 5 3 1 4 4 4 4 6 6 10 3 9 6 4 8 10 7 3 5 7
Wind_Direction
16 11 9 8 11 11 11 7 1 358 356 2 9 10 19 40 38 40 47 112 111 102 107 105 145 133 98 59 51 5 165 141 133 145 155 167 165 151 144 133 163 234 155 267 281 289 282
17 14 12 10 10 10 8 5 3 2 4 10 15 28 45 38 46 73 65 107 107 92 112 117 140 147 49 78 356 87 119 142 141 135 138 166 167 121 108 126 228 54 231 272 283 287 279
18 16 16 14 9 9 8 7 5 5 11 22 26 40 46 40 63 103 86 97 91 84 96 130 121 119 79 49 79 81 94 119 120 121 121 98 112 214 134 136 132 142 269 226 236 263 287
17 17 16 16 12 9 8 9 9 11 17 31 35 39 25 27 75 101 101 92 88 91 96 108 104 114 70 64 93 72 90 95 95 96 99 83 92 83 78 115 136 199 252 258 133 187 126
14 17 16 14 13 9 9 11 12 14 22 27 29 35 38 34 113 105 98 92 86 95 84 96 68 97 74 73 45 38 81 103 96 88 86 82 59 85 143 181 175 198 229 221 235 192 235
11 13 14 14 15 10 10 12 15 15 22 32 34 43 56 62 86 106 110 96 83 71 105 76 42 86 43 65 330 77 92 101 93 115 103 77 77 144 172 196 226 180 226 205 253 154 230
12 9 11 12 13 13 10 11 12 15 21 31 39 58 73 79 91 95 111 129 39 39 45 65 74 85 74 73 43 60 84 98 120 207 138 109 173 153 99 42 29 15 302 284 284 299 300
13 10 6 6 11 10 11 11 10 15 17 24 44 66 78 77 88 59 100 86 58 125 64 44 51 58 52 25 98 61 342 197 204 109 141 166 125 107 84 51 25 353 305 293 304 5 301
15 11 6 3 6 10 9 9 11 11 18 17 24 64 75 91 89 72 85 78 101 124 77 45 31 28 344 1 67 32 13 356 73 98 88 161 110 142 177 149 275 225 282 330 308 317 280
14 11 5 2 2 8 10 9 8 7 12 20 22 42 101 74 49 66 55 76 24 286 80 16 29 55 311 278 61 27 11 349 77 99 55 87 144 262 207 274 270 263 23 305 312 341 309
10 11 9 3 0 3 8 10 7 6 7 9 20 20 28 304 103 23 49 355 321 249 74 2 9 22 342 39 120 63 355 355 62 101 253 97 158 187 245 6 249 14 321 302 302 307 323
1 7 8 6 0 2 2 6 5 5 7 6 7 9 346 333 8 76 320 331 313 7 61 353 354 19 100 43 52 9 8 57 15 13 40 95 81 257 327 287 260 313 301 290 57 259 263
355 359 5 2 4 0 359 2 3 360 359 359 0 356 4 316 352 240 261 264 98 43 199 64 58 68 64 52 69 15 28 80 27 73 84 168 192 178 239 252 179 249 306 312 231 241 277
351 355 358 1 358 359 355 355 358 359 355 354 352 14 4 0 280 180 195 150 63 90 99 108 114 122 62 344 71 22 269 122 108 309 285 230 194 199 163 278 324 313 326 333 293 299 315
347 352 352 357 357 358 356 352 354 359 355 357 24 70 40 348 151 207 238 58 93 105 158 149 173 139 110 112 301 260 39 26 15 337 340 315 121 140 214 232 296 44 238 34 327 233 274
348 345 349 354 356 354 358 353 354 359 357 351 336 248 58 15 13 232 63 89 91 68 123 249 84 297 125 102 222 232 323 101 289 300 304 30 261 113 98 228 249 192 19 226 181 280 283
341 343 345 348 352 350 352 358 358 2 1 3 329 302 5 18 18 57 78 79 107 121 253 301 57 115 71 74 352 54 28 125 218 105 282 359 28 122 268 207 169 149 226 210 307 274 296
335 338 340 343 350 350 349 353 4 5 3 26 317 41 342 15 50 7 67 87 160 139 181 178 274 29 36 174 139 308 15 4 140 166 338 101 291 274 245 83 306 249 248 214 250 102 250
331 332 335 338 346 348 349 349 357 13 10 348 13 329 341 331 106 78 69 99 33 170 155 199 143 138 105 276 275 285 256 85 196 222 346 94 243 297 183 187 201 232 230 233 250 305 252
336 330 331 332 340 346 346 348 349 5 17 27 301 318 2 54 350 131 142 165 139 166 166 164 333 256 245 227 208 310 278 157 188 223 60 315 264 258 282 328 325 251 234 219 231 238 263
336 332 326 326 330 339 340 340 338 349 13 91 10 67 348 265 192 180 202 162 185 213 244 216 192 252 243 265 240 249 242 213 198 157 203 222 269 274 269 271 271 264 256 247 220 232 261
322 330 325 320 319 330 335 333 322 329 4 77 3 192 179 70 351 251 224 207 191 186 234 200 252 186 233 275 297 304 290 235 259 183 212 213 276 296 287 259 265 257 250 242 242 241 244
310 313 320 319 315 322 331 326 301 296 333 128 134 128 299 122 226 235 243 207 215 189 197 267 262 258 239 270 305 301 294 280 276 247 222 224 257 309 269 323 309 279 252 229 232 227 227
303 305 310 313 312 318 332 343 109 301 259 306 162 155 195 190 240 253 260 236 224 218 281 238 221 261 54 303 283 256 253 255 251 240 244 247 240 259 279 293 248 321 68 307 218 234 228
296 299 301 307 306 309 327 338 82 345 291 303 169 212 204 222 231 252 244 240 237 231 237 244 232 253 305 293 283 292 199 220 222 230 231 236 265 274 269 288 281 285 164 211 198 268 236
291 293 293 295 298 295 306 295 220 58 185 305 196 151 257 277 207 204 226 246 255 237 229 225 179 209 238 261 256 256 268 8 197 164 291 223 247 268 283 282 272 58 102 214 265 263 23
284 292 286 286 283 282 282 277 248 233 241 247 266 219 281 262 193 174 197 212 205 275 281 143 174 178 226 220 238 244 246 109 259 250 168 186 220 231 243 263 282 344 139 158 238 58 27
276 282 283 280 277 272 266 263 250 241 241 237 272 222 252 266 253 212 206 182 171 220 266 91 219 198 183 219 236 217 242 189 248 234 203 200 196 201 206 227 258 151 132 216 95 154 212
274 280 281 278 273 268 263 257 249 238 234 230 243 236 227 247 313 244 244 243 247 278 263 191 319 286 225 214 233 234 222 216 244 260 205 237 219 236 209 230 358 203 251 228 219 271 263
Height
826 823 818 813 807 802 796 790 783 777 771 765 759 753 749 748 748 746 745 749 753 756 757 759 760 760 764 769 780 781 782 785 786 787 787 786 785 786 786 789 796 794 798 803 801 803 803
827 824 820 815 810 804 798 792 786 780 774 766 762 757 755 755 752 752 752 753 757 759 759 762 763 765 769 781 785 784 784 787 788 789 791 789 787 787 791 794 796 798 801 801 801 801 802
829 825 822 818 813 808 802 795 789 782 777 770 765 761 760 759 758 758 756 759 762 762 761 765 768 769 783 789 789 789 787 790 791 792 794 794 792 790 793 800 802 802 802 800 799 800 801
832 828 824 820 816 810 805 799 792 787 781 774 772 766 765 763 761 762 762 764 765 765 767 771 773 775 789 794 794 791 792 793 794 795 798 799 798 798 797 801 802 800 802 794 794 802 802
834 830 826 821 818 813 808 802 796 791 786 780 775 772 768 766 764 767 770 771 770 773 774 776 778 781 795 798 798 796 795 797 797 799 800 801 801 803 805 798 798 798 788 798 795 800 801
836 832 828 824 820 816 811 805 801 795 791 787 780 778 777 774 774 775 776 777 777 779 780 778 782 785 803 806 804 801 801 800 800 802 802 803 804 802 800 802 789 777 792 790 793 795 801
837 833 829 825 822 819 814 809 805 800 795 792 788 784 782 781 783 782 782 780 780 789 789 792 800 800 806 808 807 805 803 802 802 800 798 804 803 805 798 800 799 795 796 793 787 789 800
838 834 831 827 823 820 816 812 808 803 800 796 792 790 789 786 784 784 783 786 793 796 800 806 807 807 810 812 813 808 806 802 800 802 801 802 806 810 809 809 806 804 799 791 790 796 796
840 835 832 828 824 821 818 815 811 806 802 799 796 795 792 790 787 787 789 792 795 795 804 815 817 817 818 815 811 811 808 805 801 803 798 797 809 813 811 810 807 799 800 797 802 794 780
840 837 832 829 826 822 819 817 813 808 805 802 800 798 796 793 793 793 795 796 796 796 794 823 819 823 820 815 813 813 813 811 807 807 803 806 813 813 809 806 805 797 802 803 800 798 800
840 836 833 830 826 823 820 818 815 812 808 804 802 799 798 796 796 794 799 797 796 796 790 826 821 820 815 812 814 813 814 807 807 808 807 808 811 811 807 806 806 800 803 802 799 801 811
843 837 833 829 827 824 821 818 815 812 809 805 803 802 800 801 800 800 798 797 796 793 818 828 817 816 814 813 814 813 811 811 812 808 807 806 811 810 805 807 807 803 800 791 799 804 803
845 840 835 831 827 824 821 818 814 811 808 805 804 804 802 801 799 799 799 799 794 807 829 820 816 813 811 814 814 814 812 807 806 811 804 805 807 808 811 806 805 805 795 795 797 798 785
845 841 837 832 828 824 821 818 814 810 806 803 803 802 801 801 799 799 799 790 805 819 818 817 815 811 810 812 814 813 809 805 810 805 800 802 810 805 804 802 801 800 799 802 802 786 780
845 841 838 833 828 824 820 817 814 811 807 802 802 802 804 802 799 801 794 803 815 814 815 812 814 806 809 811 810 808 806 805 806 806 806 799 802 802 803 800 802 809 806 805 817 794 798
844 841 838 834 830 824 820 817 813 809 806 803 802 801 800 800 798 799 799 808 816 815 815 814 804 805 803 807 807 805 805 807 808 809 807 805 806 798 801 804 805 808 816 813 815 802 783
844 841 838 834 830 825 820 815 813 810 805 803 803 795 799 797 798 796 813 815 814 816 817 812 807 804 804 805 805 804 805 806 806 808 808 807 813 803 805 802 796 815 816 817 812 798 789
844 840 837 834 830 826 822 818 813 810 806 805 806 802 799 796 803 804 806 807 818 815 815 811 810 806 804 807 804 804 804 805 805 807 807 807 808 806 793 787 790 792 796 801 805 796 794
842 839 836 833 830 826 822 820 815 811 809 809 806 806 802 799 803 807 814 813 814 811 811 809 806 806 805 805 805 803 802 803 806 808 806 807 807 803 790 794 795 796 788 792 792 797 793
840 838 836 832 830 826 823 820 817 813 810 811 808 809 805 804 806 799 807 812 810 812 809 809 807 806 805 802 802 800 800 803 806 806 812 811 806 801 792 782 786 786 784 786 788 798 777
839 837 834 831 828 826 823 820 818 815 811 809 812 814 820 811 808 806 806 806 809 810 810 807 806 805 803 802 802 800 800 801 805 809 809 809 805 801 792 785 781 780 780 777 785 783 775
837 835 833 830 827 824 822 819 816 816 813 812 808 810 818 816 818 812 813 804 801 806 808 806 806 803 805 804 799 798 802 800 796 804 804 804 803 794 787 769 777 776 767 767 767 765 765
834 833 831 829 826 824 820 817 815 815 814 811 815 816 815 823 816 811 800 801 805 807 804 806 805 805 803 802 801 802 802 800 799 799 798 801 800 795 785 771 772 760 740 745 751 749 750
832 831 829 826 825 823 820 814 814 816 815 814 812 812 808 804 812 807 809 810 808 808 808 805 808 808 808 808 804 803 801 799 799 798 800 795 797 796 788 776 772 736 744 744 738 737 738
828 828 826 824 823 821 820 817 814 816 818 816 813 813 808 801 805 807 812 809 808 809 809 808 804 804 808 805 796 787 784 793 791 796 798 801 795 791 787 772 747 731 742 744 743 733 724
823 822 823 822 820 819 819 818 815 816 817 817 816 814 812 806 797 803 806 809 805 800 802 804 806 808 807 800 797 792 781 779 779 793 803 799 800 796 782 785 761 740 743 743 742 738 730
818 817 818 818 817 816 816 817 816 814 815 817 816 816 816 809 801 804 799 801 807 804 800 801 801 805 806 795 795 791 782 789 784 781 790 794 795 793 786 782 752 734 743 744 744 736 734
813 812 813 813 813 813 813 813 815 814 814 815 816 816 816 810 804 804 803 800 804 805 798 803 804 801 801 797 789 782 785 778 786 772 776 773 775 777 776 774 769 739 747 743 729 731 733
808 808 808 808 807 808 809 810 810 811 812 813 814 813 814 814 805 804 802 800 799 799 798 800 798 797 788 787 786 781 783 781 775 768 772 773 756 749 753 740 728 734 727 725 728 729 728